{"data":{"norad_id":25967,"intl_designator":"1999-063A","name":"UFO 10 (USA 146)","alt_names":[],"object_type":"PAYLOAD","status":"ACTIVE","operator":null,"country":"US","launch_date":"1999-11-23","launch_site_code":"AFETR","launch_vehicle":null,"mission":null,"orbit_class":"UNKNOWN","rcs_meters":0.5186,"size_class":null,"mass_kg":null,"dimensions":null,"purposes":["comms"],"wikipedia_slug":null,"has_3d_model":false,"image_url":null,"decayed_at":null,"tle_current":{"epoch":"2026-05-24T01:26:38.421888Z","epoch_age_seconds":152930,"freshness":"FRESH","line1":"1 25967U 99063A   26144.06016692 -.00000197  00000+0  00000+0 0  9999","line2":"2 25967   9.8403  27.3441 0002931 331.6274 241.4022  1.00267754 97101","mean_motion":1.00267754,"eccentricity":0.0002931,"inclination_deg":9.8403,"raan_deg":27.3441,"arg_perigee_deg":331.6274,"mean_anomaly_deg":241.4022,"bstar":0,"rev_number":9710,"period_min":1436.1546385092,"perigee_km":35775.366220516,"apogee_km":35800.083848841,"semimajor_km":42165.862034678,"source":"CELESTRAK","updated_at":"2026-05-25T13:38:13.809267Z"}}}